Previsão horária em Almenno San Salvatore

Hoje, 19 Janeiro, Terça-feira

Tempo Temperatura Precipitação Vento Pressão Humidade
00:00 +1°C° 0 mm 1 m/s 736 mmHg 58%
01:00 +1°C° 0 mm 1 m/s 736 mmHg 55%
02:00 +1°C° 0 mm 1 m/s 736 mmHg 54%
03:00 +1°C° 0 mm 1 m/s 736 mmHg 54%
04:00 +1°C° 0 mm 1 m/s 735 mmHg 53%
05:00 +1°C° 0 mm 1 m/s 735 mmHg 53%
06:00 +1°C° 0 mm 1 m/s 735 mmHg 53%
07:00 +1°C° 0 mm 1 m/s 735 mmHg 52%
08:00 +1°C° 0 mm 1 m/s 735 mmHg 50%
09:00 +1°C° 0 mm 0 m/s 735 mmHg 49%
10:00 +2°C° 0 mm 0 m/s 735 mmHg 47%
11:00 +3°C° 0 mm 0 m/s 734 mmHg 45%
12:00 +4°C° 0 mm 0 m/s 734 mmHg 43%
13:00 +6°C° 0 mm 1 m/s 734 mmHg 41%
14:00 +6°C° 0 mm 1 m/s 734 mmHg 46%
15:00 +5°C° 0 mm 1 m/s 733 mmHg 51%
16:00 +5°C° 0 mm 1 m/s 733 mmHg 55%
17:00 +4°C° 0 mm 1 m/s 733 mmHg 57%
18:00 +4°C° 0 mm 1 m/s 733 mmHg 58%
19:00 +3°C° 0 mm 1 m/s 733 mmHg 60%
20:00 +3°C° 0 mm 1 m/s 733 mmHg 61%
21:00 +3°C° 0 mm 1 m/s 733 mmHg 63%
22:00 +3°C° 0 mm 1 m/s 733 mmHg 64%
23:00 +3°C° 0 mm 1 m/s 733 mmHg 65%

Amanhã, 20 Janeiro, Quarta-feira

Tempo Temperatura Precipitação Vento Pressão Humidade
00:00 +3°C° 0 mm 1 m/s 733 mmHg 67%
01:00 +3°C° 0 mm 1 m/s 733 mmHg 68%
02:00 +3°C° 0 mm 1 m/s 733 mmHg 69%
03:00 +3°C° 0 mm 1 m/s 733 mmHg 69%
04:00 +2°C° 0 mm 1 m/s 732 mmHg 69%
05:00 +2°C° 0 mm 1 m/s 732 mmHg 70%
06:00 +3°C° 0 mm 1 m/s 732 mmHg 71%
07:00 +3°C° 0 mm 1 m/s 733 mmHg 72%
08:00 +3°C° 0 mm 1 m/s 733 mmHg 72%
09:00 +3°C° 0 mm 1 m/s 733 mmHg 72%
10:00 +3°C° 0 mm 0 m/s 733 mmHg 72%
11:00 +3°C° 0 mm 0 m/s 732 mmHg 73%
12:00 +4°C° 0 mm 0 m/s 732 mmHg 74%
13:00 +4°C° 0 mm 0 m/s 732 mmHg 75%
14:00 +4°C° 0.1 mm 0 m/s 731 mmHg 78%
15:00 +3°C° 0.1 mm 0 m/s 731 mmHg 81%
16:00 +3°C° 0.1 mm 0 m/s 731 mmHg 84%
17:00 +3°C° 0.2 mm 0 m/s 731 mmHg 87%
18:00 +3°C° 0.2 mm 0 m/s 731 mmHg 90%
19:00 +3°C° 0.2 mm 0 m/s 731 mmHg 92%
20:00 +3°C° 0.3 mm 0 m/s 731 mmHg 93%
21:00 +3°C° 0.3 mm 0 m/s 731 mmHg 94%
22:00 +4°C° 0.3 mm 1 m/s 731 mmHg 94%
23:00 +3°C° 0.3 mm 0 m/s 730 mmHg 95%

Depois de amanhã, 21 Janeiro, Quinta-feira

Tempo Temperatura Precipitação Vento Pressão Humidade
00:00 +3°C° 0.3 mm 0 m/s 730 mmHg 95%
01:00 +3°C° 0.3 mm 0 m/s 730 mmHg 96%
02:00 +3°C° 0.2 mm 0 m/s 730 mmHg 96%
03:00 +3°C° 0.2 mm 0 m/s 729 mmHg 96%
04:00 +4°C° 0.2 mm 1 m/s 729 mmHg 96%
05:00 +4°C° 0.3 mm 1 m/s 729 mmHg 96%
06:00 +4°C° 0.3 mm 1 m/s 729 mmHg 96%
07:00 +4°C° 0.3 mm 1 m/s 729 mmHg 96%
08:00 +5°C° 0.7 mm 1 m/s 729 mmHg 96%
09:00 +4°C° 0.7 mm 0 m/s 728 mmHg 96%
10:00 +4°C° 0.7 mm 0 m/s 728 mmHg 96%
11:00 +5°C° 0.4 mm 1 m/s 728 mmHg 95%
12:00 +6°C° 0.4 mm 1 m/s 727 mmHg 95%
13:00 +6°C° 0.4 mm 1 m/s 727 mmHg 95%
14:00 +6°C° 0.3 mm 1 m/s 726 mmHg 95%
15:00 +6°C° 0.3 mm 1 m/s 726 mmHg 96%
16:00 +6°C° 0.3 mm 1 m/s 726 mmHg 96%
17:00 +5°C° 0.6 mm 1 m/s 725 mmHg 96%
18:00 +5°C° 0.6 mm 1 m/s 725 mmHg 97%
19:00 +5°C° 0.6 mm 1 m/s 725 mmHg 97%
20:00 +5°C° 1.2 mm 1 m/s 725 mmHg 97%
21:00 +5°C° 1.2 mm 1 m/s 724 mmHg 97%
22:00 +5°C° 1.2 mm 1 m/s 723 mmHg 97%
23:00 +5°C° 2.2 mm 1 m/s 723 mmHg 97%

22 Janeiro, Sexta-feira

Tempo Temperatura Precipitação Vento Pressão Humidade
00:00 +5°C° 2.2 mm 1 m/s 722 mmHg 97%
01:00 +5°C° 2.2 mm 1 m/s 722 mmHg 97%
02:00 +5°C° 1.6 mm 1 m/s 721 mmHg 97%
03:00 +5°C° 1.6 mm 1 m/s 721 mmHg 97%
04:00 +6°C° 1.6 mm 1 m/s 720 mmHg 97%
05:00 +5°C° 0.7 mm 0 m/s 720 mmHg 97%
06:00 +5°C° 0.7 mm 0 m/s 720 mmHg 97%
07:00 +5°C° 0.7 mm 0 m/s 720 mmHg 97%
08:00 +5°C° 0.1 mm 0 m/s 720 mmHg 96%
09:00 +5°C° 0.1 mm 0 m/s 719 mmHg 96%
10:00 +5°C° 0.1 mm 0 m/s 719 mmHg 95%
11:00 +6°C° 0 mm 0 m/s 719 mmHg 94%
12:00 +7°C° 0 mm 1 m/s 718 mmHg 92%
13:00 +8°C° 0 mm 1 m/s 718 mmHg 91%
14:00 +8°C° 0 mm 1 m/s 718 mmHg 91%
15:00 +6°C° 0 mm 0 m/s 718 mmHg 92%
16:00 +6°C° 0 mm 0 m/s 717 mmHg 92%
17:00 +6°C° 0.1 mm 0 m/s 718 mmHg 92%
18:00 +6°C° 0.1 mm 0 m/s 718 mmHg 92%
19:00 +6°C° 0.1 mm 0 m/s 718 mmHg 92%
20:00 +6°C° 0.2 mm 0 m/s 718 mmHg 92%
21:00 +6°C° 0.2 mm 0 m/s 718 mmHg 93%
22:00 +5°C° 0.2 mm 0 m/s 718 mmHg 93%
23:00 +5°C° 1.7 mm 0 m/s 718 mmHg 94%

23 Janeiro, Sábado

Tempo Temperatura Precipitação Vento Pressão Humidade
00:00 +6°C° 1.7 mm 1 m/s 718 mmHg 95%
01:00 +6°C° 1.7 mm 1 m/s 718 mmHg 97%
02:00 +6°C° 0.8 mm 1 m/s 717 mmHg 95%
03:00 +6°C° 0.8 mm 1 m/s 717 mmHg 94%
04:00 +6°C° 0.8 mm 1 m/s 716 mmHg 93%
05:00 +6°C° 0.1 mm 1 m/s 716 mmHg 90%
06:00 +6°C° 0.1 mm 1 m/s 716 mmHg 88%
07:00 +4°C° 0.1 mm 2 m/s 716 mmHg 85%
08:00 +5°C° 0 mm 2 m/s 716 mmHg 80%
09:00 +5°C° 0 mm 2 m/s 715 mmHg 75%
10:00 +5°C° 0 mm 2 m/s 715 mmHg 70%
11:00 +6°C° 0 mm 2 m/s 714 mmHg 67%
12:00 +7°C° 0 mm 2 m/s 713 mmHg 63%
13:00 +7°C° 0 mm 2 m/s 713 mmHg 60%
14:00 +7°C° 0 mm 2 m/s 712 mmHg 62%
15:00 +8°C° 0 mm 1 m/s 712 mmHg 63%
16:00 +8°C° 0 mm 1 m/s 712 mmHg 65%
17:00 +7°C° 0 mm 1 m/s 712 mmHg 66%
18:00 +5°C° 0 mm 2 m/s 713 mmHg 68%
19:00 +4°C° 0 mm 2 m/s 714 mmHg 69%
20:00 +3°C° 0 mm 2 m/s 714 mmHg 68%
21:00 +3°C° 0 mm 2 m/s 715 mmHg 66%
22:00 +1°C° 0 mm 3 m/s 715 mmHg 64%
23:00 +2°C° 0 mm 2 m/s 715 mmHg 64%

24 Janeiro, Domingo

Tempo Temperatura Precipitação Vento Pressão Humidade
00:00 +1°C° 0 mm 2 m/s 716 mmHg 63%
01:00 +1°C° 0 mm 2 m/s 716 mmHg 62%
02:00 +1°C° 0 mm 2 m/s 716 mmHg 61%
03:00 +1°C° 0 mm 2 m/s 716 mmHg 60%
04:00 -1°C° 0 mm 2 m/s 716 mmHg 59%
05:00 -1°C° 0 mm 2 m/s 717 mmHg 58%
06:00 -1°C° 0 mm 2 m/s 717 mmHg 58%
07:00 -1°C° 0 mm 2 m/s 717 mmHg 57%
08:00 +1°C° 0 mm 2 m/s 718 mmHg 56%
09:00 +3°C° 0 mm 1 m/s 718 mmHg 55%
10:00 +4°C° 0 mm 1 m/s 718 mmHg 53%
11:00 +5°C° 0 mm 1 m/s 718 mmHg 52%
12:00 +6°C° 0 mm 1 m/s 719 mmHg 50%
13:00 +6°C° 0 mm 2 m/s 719 mmHg 49%
14:00 +7°C° 0 mm 1 m/s 719 mmHg 51%
15:00 +7°C° 0 mm 1 m/s 720 mmHg 54%
16:00 +7°C° 0 mm 1 m/s 720 mmHg 57%
17:00 +4°C° 0 mm 2 m/s 720 mmHg 58%
18:00 +3°C° 0 mm 2 m/s 721 mmHg 58%
19:00 +1°C° 0 mm 2 m/s 721 mmHg 59%
20:00 +1°C° 0 mm 2 m/s 721 mmHg 57%
21:00 +1°C° 0 mm 2 m/s 721 mmHg 56%
22:00 -1°C° 0 mm 2 m/s 721 mmHg 54%
23:00 -1°C° 0 mm 2 m/s 721 mmHg 52%
Mostrar mais

Necessitamos do seu Consentimento

A Meteoprog e os seus Fornecedores de Serviços podem armazenar e aceder a dados pessoais como cookies, identificadores do dispositivo ou outras tecnologias semelhantes existentes no seu dispositivo e processar estes dados para personalizar conteúdos e anúncios, assim como funcionalidades nas redes sociais e análise de tráfego.

  • Armazenar e/ou aceder a informações no seu dispositivo

    Os cookies, identificadores do dispositivo ou outras informações podem ser armazenados ou acedidos no seu dispositivo, para os fins acima indicados.

  • Anúncios e conteúdos personalizados, medição de anúncios e conteúdos, dados sobre o público-alvo e desenvolvimento de produtos

    Os anúncios e os conteúdos podem ser personalizados com base num perfil. Podem ser adicionados dados adicionais para uma maior personalização dos anúncios e dos conteúdos. A eficácia dos anúncios e dos conteúdos pode ser medida. Podem ser obtidas informações sobre o público que visualizou os anúncios e os conteúdos. Estes dados podem ser usados para desenvolver ou melhorar sistemas, softwares ou a experiência do utilizador.

Ao clicar em "Eu concordo”, permitirá o uso de cookies, identificadores do dispositivo e web beacons mencionados ou outras tecnologias semelhantes. As configurações do navegador do seu dispositivo podem ser alteradas.

Para certos fins, podem ser invocados interesses legítimos ao invés de consentimento. Pode ler mais informação sobre este assunto na nossa Política de Privacidade e Cookies.